Tabellarische Ansicht des 20.4.2012


Die einzelnen Werte des Tages

Uhrzeit Temperatur Luftdruck Luftfeuchte Wind Hi-Wind Taupunkt THW Index Wind Chill Heat Index Solar- strahlung Regen

00:00

6.2 C

990.5 hpa

88 %

0.0 km/h aus 116

0.0 km/h aus ---

4.3 C

6.2 C

6.2 C

6.2 C

0 W/m

0.00 mm

00:05

6.0 C

990.5 hpa

88 %

0.0 km/h aus 114

1.6 km/h aus S

4.2 C

6.0 C

6.0 C

6.0 C

0 W/m

0.00 mm

00:10

5.6 C

990.5 hpa

88 %

0.0 km/h aus 117

0.0 km/h aus ---

3.8 C

5.6 C

5.6 C

5.6 C

0 W/m

0.00 mm

00:15

5.2 C

990.6 hpa

88 %

0.0 km/h aus 116

0.0 km/h aus ---

3.4 C

5.2 C

5.2 C

5.2 C

0 W/m

0.00 mm

00:20

5.2 C

990.6 hpa

89 %

0.0 km/h aus 116

1.6 km/h aus S

3.5 C

5.1 C

5.2 C

5.1 C

0 W/m

0.00 mm

00:25

5.1 C

990.6 hpa

89 %

1.6 km/h aus 116

3.2 km/h aus S

3.4 C

5.0 C

5.1 C

5.0 C

0 W/m

0.00 mm

00:30

5.0 C

990.7 hpa

90 %

0.0 km/h aus 117

1.6 km/h aus S

3.5 C

4.9 C

5.0 C

4.9 C

0 W/m

0.00 mm

00:35

5.2 C

990.7 hpa

90 %

0.0 km/h aus 117

3.2 km/h aus S

3.7 C

5.1 C

5.2 C

5.1 C

0 W/m

0.00 mm

00:40

5.3 C

990.7 hpa

90 %

0.0 km/h aus 118

3.2 km/h aus S

3.8 C

5.3 C

5.3 C

5.3 C

0 W/m

0.00 mm

00:45

5.1 C

990.8 hpa

90 %

1.6 km/h aus 117

4.8 km/h aus S

3.6 C

5.1 C

5.1 C

5.1 C

0 W/m

0.00 mm

00:50

5.4 C

990.8 hpa

91 %

1.6 km/h aus 116

4.8 km/h aus S

4.0 C

5.4 C

5.4 C

5.4 C

0 W/m

0.00 mm

00:55

5.6 C

990.8 hpa

91 %

1.6 km/h aus 114

4.8 km/h aus S

4.2 C

5.6 C

5.6 C

5.6 C

0 W/m

0.00 mm

01:00

5.8 C

990.8 hpa

91 %

0.0 km/h aus 117

1.6 km/h aus S

4.4 C

5.8 C

5.8 C

5.8 C

0 W/m

0.00 mm

01:05

5.9 C

990.8 hpa

91 %

0.0 km/h aus 116

1.6 km/h aus S

4.6 C

5.9 C

5.9 C

5.9 C

0 W/m

0.00 mm

01:10

6.1 C

990.8 hpa

91 %

1.6 km/h aus 116

4.8 km/h aus S

4.8 C

6.1 C

6.1 C

6.1 C

0 W/m

0.00 mm

01:15

6.2 C

991.0 hpa

90 %

3.2 km/h aus 116

8.0 km/h aus S

4.7 C

6.2 C

6.2 C

6.2 C

0 W/m

0.00 mm

01:20

6.3 C

991.0 hpa

90 %

0.0 km/h aus 117

1.6 km/h aus SSW

4.8 C

6.3 C

6.3 C

6.3 C

0 W/m

0.00 mm

01:25

6.3 C

991.0 hpa

90 %

0.0 km/h aus 116

0.0 km/h aus ---

4.8 C

6.3 C

6.3 C

6.3 C

0 W/m

0.00 mm

01:30

6.3 C

991.0 hpa

90 %

0.0 km/h aus 117

3.2 km/h aus SSW

4.8 C

6.3 C

6.3 C

6.3 C

0 W/m

0.00 mm

01:35

6.2 C

991.0 hpa

90 %

0.0 km/h aus 116

1.6 km/h aus SSW

4.7 C

6.2 C

6.2 C

6.2 C

0 W/m

0.00 mm

01:40

6.3 C

991.0 hpa

90 %

0.0 km/h aus 116

0.0 km/h aus ---

4.8 C

6.3 C

6.3 C

6.3 C

0 W/m

0.00 mm

01:45

6.3 C

990.9 hpa

90 %

0.0 km/h aus 117

0.0 km/h aus ---

4.8 C

6.3 C

6.3 C

6.3 C

0 W/m

0.00 mm

01:50

6.3 C

990.9 hpa

90 %

0.0 km/h aus 115

0.0 km/h aus ---

4.8 C

6.3 C

6.3 C

6.3 C

0 W/m

0.00 mm

01:55

6.3 C

990.9 hpa

89 %

0.0 km/h aus 116

0.0 km/h aus ---

4.6 C

6.3 C

6.3 C

6.3 C

0 W/m

0.00 mm

02:00

6.1 C

990.9 hpa

89 %

0.0 km/h aus 117

3.2 km/h aus SSW

4.4 C

6.1 C

6.1 C

6.1 C

0 W/m

0.00 mm

02:05

5.9 C

990.9 hpa

89 %

0.0 km/h aus 116

0.0 km/h aus ---

4.2 C

5.9 C

5.9 C

5.9 C

0 W/m

0.00 mm

02:10

5.8 C

990.9 hpa

89 %

0.0 km/h aus 116

0.0 km/h aus ---

4.1 C

5.8 C

5.8 C

5.8 C

0 W/m

0.00 mm

02:15

5.7 C

990.8 hpa

90 %

0.0 km/h aus 117

0.0 km/h aus ---

4.2 C

5.7 C

5.7 C

5.7 C

0 W/m

0.00 mm

02:20

5.5 C

990.8 hpa

89 %

0.0 km/h aus 117

0.0 km/h aus ---

3.8 C

5.5 C

5.5 C

5.5 C

0 W/m

0.00 mm

02:25

5.4 C

990.8 hpa

90 %

0.0 km/h aus 117

0.0 km/h aus ---

3.9 C

5.4 C

5.4 C

5.4 C

0 W/m

0.00 mm

02:30

5.4 C

990.7 hpa

90 %

0.0 km/h aus 116

0.0 km/h aus ---

3.9 C

5.4 C

5.4 C

5.4 C

0 W/m

0.00 mm

02:35

5.3 C

990.7 hpa

90 %

0.0 km/h aus 117

0.0 km/h aus ---

3.8 C

5.3 C

5.3 C

5.3 C

0 W/m

0.00 mm

02:40

5.2 C

990.7 hpa

90 %

0.0 km/h aus 116

0.0 km/h aus ---

3.7 C

5.1 C

5.2 C

5.1 C

0 W/m

0.00 mm

02:45

5.2 C

990.6 hpa

91 %

0.0 km/h aus 115

0.0 km/h aus ---

3.9 C

5.2 C

5.2 C

5.2 C

0 W/m

0.00 mm

02:50

5.2 C

990.6 hpa

91 %

0.0 km/h aus 117

0.0 km/h aus ---

3.9 C

5.2 C

5.2 C

5.2 C

0 W/m

0.00 mm

02:55

5.3 C

990.6 hpa

91 %

0.0 km/h aus 117

0.0 km/h aus ---

3.9 C

5.3 C

5.3 C

5.3 C

0 W/m

0.00 mm

03:00

5.3 C

990.6 hpa

91 %

0.0 km/h aus 116

1.6 km/h aus SSW

4.0 C

5.3 C

5.3 C

5.3 C

0 W/m

0.00 mm

03:05

5.3 C

990.6 hpa

91 %

0.0 km/h aus 117

0.0 km/h aus ---

4.0 C

5.3 C

5.3 C

5.3 C

0 W/m

0.00 mm

03:10

5.0 C

990.6 hpa

91 %

0.0 km/h aus 117

0.0 km/h aus ---

3.7 C

4.9 C

5.0 C

4.9 C

0 W/m

0.00 mm

03:15

4.6 C

990.8 hpa

91 %

0.0 km/h aus 117

0.0 km/h aus ---

3.3 C

4.6 C

4.6 C

4.6 C

0 W/m

0.00 mm

03:20

4.3 C

990.8 hpa

91 %

0.0 km/h aus 117

0.0 km/h aus ---

2.9 C

4.2 C

4.3 C

4.2 C

0 W/m

0.00 mm

03:25

4.2 C

990.8 hpa

91 %

0.0 km/h aus 115

0.0 km/h aus ---

2.9 C

4.2 C

4.2 C

4.2 C

0 W/m

0.00 mm

03:30

4.2 C

990.8 hpa

92 %

0.0 km/h aus 117

0.0 km/h aus ---

3.0 C

4.2 C

4.2 C

4.2 C

0 W/m

0.00 mm

03:35

4.1 C

990.8 hpa

92 %

0.0 km/h aus 115

0.0 km/h aus ---

2.9 C

4.1 C

4.1 C

4.1 C

0 W/m

0.00 mm

03:40

3.6 C

990.8 hpa

91 %

0.0 km/h aus 117

3.2 km/h aus SSW

2.3 C

3.6 C

3.6 C

3.6 C

0 W/m

0.00 mm

03:45

3.6 C

991.0 hpa

92 %

0.0 km/h aus 116

3.2 km/h aus SSW

2.4 C

3.6 C

3.6 C

3.6 C

0 W/m

0.00 mm

03:50

3.6 C

991.0 hpa

92 %

0.0 km/h aus 117

0.0 km/h aus ---

2.4 C

3.5 C

3.6 C

3.5 C

0 W/m

0.00 mm

03:55

3.6 C

991.0 hpa

92 %

0.0 km/h aus 116

1.6 km/h aus SSW

2.4 C

3.6 C

3.6 C

3.6 C

0 W/m

0.00 mm

04:00

3.6 C

990.9 hpa

92 %

0.0 km/h aus 116

0.0 km/h aus ---

2.4 C

3.6 C

3.6 C

3.6 C

0 W/m

0.00 mm

04:05

3.6 C

990.9 hpa

92 %

0.0 km/h aus 117

3.2 km/h aus SSW

2.4 C

3.5 C

3.6 C

3.5 C

0 W/m

0.00 mm

04:10

3.5 C

990.9 hpa

92 %

0.0 km/h aus 117

1.6 km/h aus SSW

2.3 C

3.4 C

3.5 C

3.4 C

0 W/m

0.00 mm

04:15

3.4 C

990.8 hpa

92 %

0.0 km/h aus 117

0.0 km/h aus ---

2.2 C

3.3 C

3.4 C

3.3 C

0 W/m

0.00 mm

04:20

3.1 C

990.8 hpa

92 %

0.0 km/h aus 117

0.0 km/h aus ---

1.9 C

3.1 C

3.1 C

3.1 C

0 W/m

0.00 mm

04:25

3.2 C

990.8 hpa

92 %

0.0 km/h aus 117

0.0 km/h aus ---

2.0 C

3.1 C

3.2 C

3.1 C

0 W/m

0.00 mm

04:30

3.3 C

990.8 hpa

93 %

0.0 km/h aus 117

0.0 km/h aus ---

2.3 C

3.3 C

3.3 C

3.3 C

0 W/m

0.00 mm

04:35

3.2 C

990.8 hpa

93 %

0.0 km/h aus 117

0.0 km/h aus ---

2.2 C

3.2 C

3.2 C

3.2 C

0 W/m

0.00 mm

04:40

3.2 C

990.8 hpa

93 %

0.0 km/h aus 117

0.0 km/h aus ---

2.2 C

3.2 C

3.2 C

3.2 C

0 W/m

0.00 mm

04:45

3.1 C

990.8 hpa

92 %

0.0 km/h aus 116

0.0 km/h aus ---

1.9 C

3.0 C

3.1 C

3.0 C

0 W/m

0.00 mm

04:50

2.7 C

990.8 hpa

92 %

0.0 km/h aus 117

0.0 km/h aus ---

1.5 C

2.6 C

2.7 C

2.6 C

0 W/m

0.00 mm

04:55

2.7 C

990.8 hpa

93 %

0.0 km/h aus 118

1.6 km/h aus SSW

1.6 C

2.7 C

2.7 C

2.7 C

0 W/m

0.00 mm

05:00

2.7 C

990.7 hpa

93 %

0.0 km/h aus 115

1.6 km/h aus SSW

1.7 C

2.7 C

2.7 C

2.7 C

0 W/m

0.00 mm

05:05

2.7 C

990.7 hpa

93 %

0.0 km/h aus 117

0.0 km/h aus ---

1.7 C

2.7 C

2.7 C

2.7 C

0 W/m

0.00 mm

05:10

2.8 C

990.7 hpa

93 %

0.0 km/h aus 116

0.0 km/h aus ---

1.8 C

2.8 C

2.8 C

2.8 C

0 W/m

0.00 mm

05:15

2.9 C

990.8 hpa

93 %

0.0 km/h aus 117

0.0 km/h aus ---

1.9 C

2.9 C

2.9 C

2.9 C

0 W/m

0.00 mm

05:20

3.0 C

990.8 hpa

93 %

0.0 km/h aus 116

0.0 km/h aus ---

2.0 C

3.0 C

3.0 C

3.0 C

0 W/m

0.00 mm

05:25

2.9 C

990.8 hpa

93 %

0.0 km/h aus 117

0.0 km/h aus ---

1.9 C

2.9 C

2.9 C

2.9 C

0 W/m

0.00 mm

05:30

2.9 C

991.0 hpa

93 %

0.0 km/h aus 117

0.0 km/h aus ---

1.9 C

2.9 C

2.9 C

2.9 C

0 W/m

0.00 mm

05:35

2.9 C

991.0 hpa

93 %

0.0 km/h aus 117

0.0 km/h aus ---

1.9 C

2.9 C

2.9 C

2.9 C

0 W/m

0.00 mm

05:40

3.1 C

991.0 hpa

93 %

0.0 km/h aus 116

3.2 km/h aus SSW

2.0 C

3.1 C

3.1 C

3.1 C

0 W/m

0.00 mm

05:45

2.8 C

991.0 hpa

93 %

1.6 km/h aus 116

4.8 km/h aus SSW

1.8 C

2.8 C

2.8 C

2.8 C

0 W/m

0.00 mm

05:50

2.5 C

991.0 hpa

93 %

3.2 km/h aus 117

6.4 km/h aus SSW

1.5 C

2.2 C

2.2 C

2.5 C

0 W/m

0.00 mm

05:55

2.0 C

991.0 hpa

92 %

4.8 km/h aus 117

6.4 km/h aus SSW

0.8 C

0.7 C

0.8 C

1.9 C

0 W/m

0.00 mm

06:00

1.7 C

991.1 hpa

92 %

6.4 km/h aus 116

9.7 km/h aus SSW

0.6 C

-0.2 C

-0.2 C

1.7 C

0 W/m

0.00 mm

06:05

2.0 C

991.1 hpa

93 %

8.0 km/h aus 116

14.5 km/h aus S

1.0 C

-0.4 C

-0.4 C

2.0 C

0 W/m

0.00 mm

06:10

2.6 C

991.1 hpa

94 %

6.4 km/h aus 117

9.7 km/h aus S

1.7 C

0.8 C

0.8 C

2.6 C

0 W/m

0.00 mm

06:15

2.8 C

991.1 hpa

93 %

4.8 km/h aus 117

8.0 km/h aus S

1.8 C

1.7 C

1.7 C

2.8 C

0 W/m

0.00 mm

06:20

2.9 C

991.1 hpa

94 %

6.4 km/h aus 117

9.7 km/h aus S

2.1 C

1.2 C

1.2 C

2.9 C

0 W/m

0.00 mm

06:25

3.2 C

991.1 hpa

93 %

8.0 km/h aus 116

12.9 km/h aus S

2.2 C

1.1 C

1.1 C

3.2 C

0 W/m

0.00 mm

06:30

3.9 C

991.1 hpa

94 %

9.7 km/h aus 117

19.3 km/h aus SSE

3.1 C

1.5 C

1.5 C

3.9 C

0 W/m

0.00 mm

06:35

4.6 C

991.1 hpa

94 %

8.0 km/h aus 117

11.3 km/h aus SSW

3.7 C

2.7 C

2.6 C

4.6 C

0 W/m

0.00 mm

06:40

4.6 C

991.1 hpa

94 %

8.0 km/h aus 116

11.3 km/h aus SSW

3.7 C

2.7 C

2.7 C

4.7 C

0 W/m

0.00 mm

06:45

4.7 C

991.2 hpa

93 %

6.4 km/h aus 117

9.7 km/h aus S

3.6 C

3.2 C

3.2 C

4.7 C

0 W/m

0.00 mm

06:50

4.7 C

991.2 hpa

93 %

6.4 km/h aus 117

11.3 km/h aus S

3.6 C

3.2 C

3.2 C

4.7 C

0 W/m

0.00 mm

06:55

4.7 C

991.2 hpa

93 %

4.8 km/h aus 117

8.0 km/h aus S

3.7 C

3.9 C

3.9 C

4.7 C

0 W/m

0.00 mm

07:00

4.8 C

991.5 hpa

93 %

0.0 km/h aus 117

3.2 km/h aus S

3.7 C

4.8 C

4.8 C

4.8 C

0 W/m

0.00 mm

07:05

4.8 C

991.5 hpa

93 %

1.6 km/h aus 118

4.8 km/h aus S

3.7 C

4.8 C

4.8 C

4.8 C

0 W/m

0.00 mm

07:10

4.8 C

991.5 hpa

92 %

4.8 km/h aus 116

8.0 km/h aus S

3.6 C

3.9 C

3.9 C

4.8 C

0 W/m

0.00 mm

07:15

4.9 C

991.6 hpa

92 %

8.0 km/h aus 117

11.3 km/h aus S

3.8 C

3.1 C

3.1 C

4.9 C

0 W/m

0.00 mm

07:20

5.2 C

991.6 hpa

93 %

8.0 km/h aus 116

11.3 km/h aus S

4.2 C

3.4 C

3.4 C

5.2 C

0 W/m

0.00 mm

07:25

5.5 C

991.6 hpa

92 %

6.4 km/h aus 117

14.5 km/h aus S

4.3 C

4.2 C

4.2 C

5.5 C

0 W/m

0.00 mm

07:30

5.9 C

991.7 hpa

92 %

8.0 km/h aus 116

16.1 km/h aus S

4.7 C

4.2 C

4.2 C

5.9 C

0 W/m

0.00 mm

07:35

6.3 C

991.7 hpa

92 %

6.4 km/h aus 117

11.3 km/h aus S

5.1 C

5.2 C

5.1 C

6.4 C

0 W/m

0.00 mm

07:40

6.7 C

991.7 hpa

91 %

6.4 km/h aus 116

16.1 km/h aus S

5.4 C

5.6 C

5.6 C

6.8 C

0 W/m

0.00 mm

07:45

7.1 C

991.7 hpa

90 %

11.3 km/h aus 116

24.1 km/h aus S

5.5 C

4.9 C

4.9 C

7.1 C

0 W/m

0.00 mm

07:50

7.3 C

991.7 hpa

89 %

12.9 km/h aus 117

24.1 km/h aus S

5.6 C

4.9 C

4.9 C

7.4 C

0 W/m

0.00 mm

07:55

7.6 C

991.7 hpa

87 %

11.3 km/h aus 117

20.9 km/h aus S

5.5 C

5.5 C

5.5 C

7.6 C

0 W/m

0.00 mm

08:00

7.5 C

991.8 hpa

85 %

14.5 km/h aus 117

22.5 km/h aus S

5.1 C

4.8 C

4.8 C

7.5 C

0 W/m

0.00 mm

08:05

7.4 C

991.8 hpa

85 %

11.3 km/h aus 117

19.3 km/h aus S

5.0 C

5.3 C

5.3 C

7.3 C

0 W/m

0.00 mm

08:10

7.2 C

991.8 hpa

84 %

9.7 km/h aus 117

17.7 km/h aus S

4.7 C

5.3 C

5.4 C

7.2 C

0 W/m

0.00 mm

08:15

7.2 C

991.9 hpa

84 %

8.0 km/h aus 116

16.1 km/h aus SSW

4.6 C

5.6 C

5.7 C

7.1 C

0 W/m

0.00 mm

08:20

7.4 C

991.9 hpa

85 %

8.0 km/h aus 117

16.1 km/h aus S

5.0 C

5.9 C

5.9 C

7.3 C

0 W/m

0.00 mm

08:25

7.8 C

991.9 hpa

84 %

4.8 km/h aus 116

9.7 km/h aus SSW

5.2 C

7.3 C

7.3 C

7.8 C

0 W/m

0.00 mm

08:30

8.2 C

992.0 hpa

84 %

6.4 km/h aus 117

11.3 km/h aus SSE

5.7 C

7.3 C

7.3 C

8.2 C

0 W/m

0.00 mm

08:35

8.2 C

992.0 hpa

83 %

4.8 km/h aus 116

9.7 km/h aus SSE

5.5 C

7.8 C

7.8 C

8.2 C

0 W/m

0.00 mm

08:40

8.5 C

992.0 hpa

83 %

3.2 km/h aus 117

8.0 km/h aus SSE

5.8 C

8.4 C

8.5 C

8.4 C

0 W/m

0.00 mm

08:45

9.0 C

992.0 hpa

82 %

3.2 km/h aus 116

8.0 km/h aus SSE

6.1 C

8.9 C

9.0 C

8.9 C

0 W/m

0.00 mm

08:50

9.6 C

992.0 hpa

81 %

4.8 km/h aus 117

11.3 km/h aus SSE

6.5 C

9.3 C

9.3 C

9.6 C

0 W/m

0.00 mm

08:55

9.8 C

992.0 hpa

80 %

11.3 km/h aus 117

16.1 km/h aus SSE

6.5 C

8.2 C

8.2 C

9.8 C

0 W/m

0.00 mm

09:00

9.9 C

992.0 hpa

79 %

11.3 km/h aus 117

16.1 km/h aus SSE

6.5 C

8.4 C

8.4 C

9.9 C

0 W/m

0.00 mm

09:05

10.1 C

992.0 hpa

78 %

9.7 km/h aus 115

14.5 km/h aus SSE

6.4 C

8.7 C

8.8 C

10.0 C

0 W/m

0.00 mm

09:10

10.3 C

992.0 hpa

78 %

11.3 km/h aus 117

17.7 km/h aus SSE

6.6 C

8.7 C

8.8 C

10.2 C

0 W/m

0.00 mm

09:15

10.4 C

992.1 hpa

77 %

9.7 km/h aus 118

14.5 km/h aus SSE

6.5 C

9.1 C

9.2 C

10.3 C

0 W/m

0.00 mm

09:20

10.7 C

992.1 hpa

77 %

12.9 km/h aus 117

17.7 km/h aus S

6.8 C

8.7 C

8.8 C

10.6 C

0 W/m

0.00 mm

09:25

10.8 C

992.1 hpa

76 %

12.9 km/h aus 116

17.7 km/h aus S

6.7 C

8.8 C

9.0 C

10.6 C

0 W/m

0.00 mm

09:30

10.9 C

992.4 hpa

76 %

12.9 km/h aus 117

16.1 km/h aus SSE

6.8 C

8.9 C

9.1 C

10.7 C

0 W/m

0.00 mm

09:35

10.9 C

992.4 hpa

75 %

9.7 km/h aus 117

16.1 km/h aus SSE

6.7 C

9.6 C

9.8 C

10.7 C

0 W/m

0.00 mm

09:40

11.2 C

992.4 hpa

75 %

11.3 km/h aus 117

16.1 km/h aus SSE

6.9 C

9.6 C

9.8 C

10.9 C

0 W/m

0.00 mm

09:45

11.3 C

992.5 hpa

75 %

9.7 km/h aus 117

16.1 km/h aus SSE

7.0 C

10.0 C

10.2 C

11.1 C

0 W/m

0.00 mm

09:50

11.6 C

992.5 hpa

75 %

9.7 km/h aus 117

16.1 km/h aus SSE

7.3 C

10.3 C

10.6 C

11.3 C

0 W/m

0.00 mm

09:55

11.3 C

992.5 hpa

75 %

8.0 km/h aus 116

14.5 km/h aus SSW

7.1 C

10.3 C

10.6 C

11.1 C

0 W/m

0.00 mm

10:00

11.2 C

992.6 hpa

74 %

6.4 km/h aus 117

16.1 km/h aus SSW

6.7 C

10.4 C

10.7 C

10.9 C

0 W/m

0.00 mm

10:05

11.4 C

992.6 hpa

73 %

6.4 km/h aus 117

16.1 km/h aus SSE

6.7 C

10.7 C

11.0 C

11.1 C

0 W/m

0.00 mm

10:10

11.7 C

992.6 hpa

71 %

4.8 km/h aus 117

11.3 km/h aus S

6.6 C

11.3 C

11.7 C

11.3 C

0 W/m

0.00 mm

10:15

11.9 C

992.5 hpa

71 %

6.4 km/h aus 118

11.3 km/h aus S

6.8 C

11.2 C

11.6 C

11.5 C

0 W/m

0.00 mm

10:20

12.1 C

992.5 hpa

71 %

8.0 km/h aus 116

14.5 km/h aus S

7.0 C

11.0 C

11.4 C

11.7 C

0 W/m

0.00 mm

10:25

12.3 C

992.5 hpa

71 %

9.7 km/h aus 117

20.9 km/h aus S

7.2 C

11.0 C

11.4 C

11.9 C

0 W/m

0.00 mm

10:30

11.9 C

992.4 hpa

69 %

9.7 km/h aus 116

17.7 km/h aus S

6.4 C

10.6 C

11.0 C

11.5 C

0 W/m

0.00 mm

10:35

11.9 C

992.4 hpa

69 %

8.0 km/h aus 116

19.3 km/h aus S

6.4 C

10.8 C

11.3 C

11.5 C

0 W/m

0.00 mm

10:40

11.8 C

992.4 hpa

70 %

9.7 km/h aus 116

19.3 km/h aus SSW

6.5 C

10.4 C

10.8 C

11.4 C

0 W/m

0.00 mm

10:45

11.7 C

992.5 hpa

69 %

12.9 km/h aus 117

20.9 km/h aus SSW

6.2 C

9.7 C

10.1 C

11.3 C

0 W/m

0.00 mm

10:50

11.7 C

992.5 hpa

68 %

9.7 km/h aus 117

19.3 km/h aus S

6.0 C

10.3 C

10.7 C

11.3 C

0 W/m

0.00 mm

10:55

11.9 C

992.5 hpa

69 %

9.7 km/h aus 116

19.3 km/h aus SSW

6.4 C

10.6 C

10.9 C

11.5 C

0 W/m

0.00 mm

11:00

11.9 C

992.6 hpa

69 %

9.7 km/h aus 117

19.3 km/h aus SSW

6.4 C

10.6 C

11.0 C

11.5 C

0 W/m

0.00 mm

11:05

12.5 C

992.6 hpa

69 %

9.7 km/h aus 116

22.5 km/h aus S

7.0 C

11.2 C

11.7 C

12.1 C

0 W/m

0.00 mm

11:10

12.7 C

992.6 hpa

69 %

12.9 km/h aus 117

22.5 km/h aus S

7.1 C

10.8 C

11.3 C

12.2 C

0 W/m

0.00 mm

11:15

12.9 C

992.6 hpa

68 %

9.7 km/h aus 117

17.7 km/h aus SSW

7.2 C

11.7 C

12.2 C

12.4 C

0 W/m

0.00 mm

11:20

12.7 C

992.6 hpa

67 %

12.9 km/h aus 116

20.9 km/h aus SW

6.7 C

10.8 C

11.3 C

12.2 C

0 W/m

0.00 mm

11:25

12.9 C

992.6 hpa

70 %

11.3 km/h aus 116

22.5 km/h aus S

7.6 C

11.6 C

12.0 C

12.5 C

0 W/m

0.00 mm

11:30

13.2 C

992.6 hpa

65 %

9.7 km/h aus 116

25.7 km/h aus SSW

6.8 C

12.0 C

12.6 C

12.7 C

0 W/m

0.00 mm

11:35

13.1 C

992.6 hpa

65 %

11.3 km/h aus 116

22.5 km/h aus SW

6.7 C

11.6 C

12.2 C

12.6 C

0 W/m

0.00 mm

11:40

12.9 C

992.6 hpa

63 %

12.9 km/h aus 116

20.9 km/h aus WSW

6.1 C

11.0 C

11.6 C

12.3 C

0 W/m

0.00 mm

11:45

13.4 C

992.6 hpa

66 %

12.9 km/h aus 116

20.9 km/h aus SSW

7.2 C

11.6 C

12.2 C

12.9 C

0 W/m

0.00 mm

11:50

13.9 C

992.6 hpa

62 %

11.3 km/h aus 117

20.9 km/h aus S

6.8 C

12.5 C

13.2 C

13.3 C

0 W/m

0.00 mm

11:55

13.9 C

992.6 hpa

65 %

12.9 km/h aus 117

19.3 km/h aus SSW

7.4 C

12.2 C

12.7 C

13.3 C

0 W/m

0.00 mm

12:00

14.4 C

992.6 hpa

62 %

8.0 km/h aus 117

14.5 km/h aus S

7.2 C

13.5 C

14.2 C

13.7 C

0 W/m

0.00 mm

12:05

14.3 C

992.6 hpa

60 %

8.0 km/h aus 117

14.5 km/h aus W

6.6 C

13.3 C

14.0 C

13.6 C

0 W/m

0.00 mm

12:10

13.9 C

992.6 hpa

58 %

9.7 km/h aus 117

20.9 km/h aus WSW

5.8 C

12.6 C

13.3 C

13.1 C

0 W/m

0.00 mm

12:15

14.0 C

992.6 hpa

64 %

8.0 km/h aus 117

16.1 km/h aus SW

7.3 C

13.1 C

13.7 C

13.4 C

0 W/m

0.00 mm

12:20

14.2 C

992.6 hpa

60 %

9.7 km/h aus 118

17.7 km/h aus SW

6.5 C

12.9 C

13.7 C

13.4 C

0 W/m

0.00 mm

12:25

13.4 C

992.6 hpa

62 %

9.7 km/h aus 117

16.1 km/h aus SW

6.3 C

12.1 C

12.7 C

12.7 C

0 W/m

0.00 mm

12:30

13.3 C

992.6 hpa

61 %

8.0 km/h aus 117

22.5 km/h aus SW

5.9 C

12.2 C

12.9 C

12.6 C

0 W/m

0.00 mm

12:35

13.2 C

992.6 hpa

62 %

8.0 km/h aus 117

17.7 km/h aus SSW

6.1 C

12.2 C

12.8 C

12.6 C

0 W/m

0.00 mm

12:40

13.0 C

992.6 hpa

62 %

8.0 km/h aus 117

16.1 km/h aus WSW

5.9 C

11.9 C

12.6 C

12.3 C

0 W/m

0.00 mm

12:45

12.7 C

992.7 hpa

62 %

14.5 km/h aus 116

22.5 km/h aus SSW

5.6 C

10.3 C

10.9 C

12.1 C

0 W/m

0.00 mm

12:50

13.1 C

992.7 hpa

65 %

9.7 km/h aus 117

17.7 km/h aus SSW

6.6 C

11.8 C

12.3 C

12.5 C

0 W/m

0.00 mm

12:55

13.9 C

992.7 hpa

60 %

9.7 km/h aus 117

20.9 km/h aus SW

6.3 C

12.7 C

13.4 C

13.2 C

0 W/m

0.00 mm

13:00

13.3 C

992.6 hpa

61 %

12.9 km/h aus 117

24.1 km/h aus S

6.0 C

11.4 C

12.1 C

12.7 C

0 W/m

0.00 mm

13:05

13.7 C

992.6 hpa

62 %

11.3 km/h aus 117

19.3 km/h aus S

6.6 C

12.2 C

12.9 C

13.1 C

0 W/m

0.00 mm

13:10

14.4 C

992.6 hpa

63 %

9.7 km/h aus 117

17.7 km/h aus SSE

7.4 C

13.3 C

13.9 C

13.8 C

0 W/m

0.00 mm

13:15

14.6 C

992.6 hpa

56 %

12.9 km/h aus 116

24.1 km/h aus S

5.9 C

12.7 C

13.5 C

13.7 C

0 W/m

0.00 mm

13:20

15.0 C

992.6 hpa

59 %

12.9 km/h aus 116

22.5 km/h aus SW

7.0 C

13.3 C

14.1 C

14.2 C

0 W/m

0.00 mm

13:25

15.0 C

992.6 hpa

53 %

9.7 km/h aus 117

20.9 km/h aus SSE

5.5 C

13.7 C

14.7 C

14.0 C

0 W/m

0.00 mm

13:30

15.3 C

992.6 hpa

56 %

8.0 km/h aus 117

16.1 km/h aus SW

6.5 C

14.4 C

15.2 C

14.4 C

0 W/m

0.00 mm

13:35

14.4 C

992.6 hpa

57 %

4.8 km/h aus 116

14.5 km/h aus S

6.0 C

13.6 C

14.4 C

13.6 C

0 W/m

0.00 mm

13:40

14.1 C

992.6 hpa

54 %

12.9 km/h aus 117

22.5 km/h aus SW

4.9 C

12.0 C

12.9 C

13.1 C

0 W/m

0.00 mm

13:45

13.7 C

992.6 hpa

56 %

12.9 km/h aus 117

24.1 km/h aus S

5.0 C

11.6 C

12.4 C

12.8 C

0 W/m

0.00 mm

13:50

13.6 C

992.6 hpa

57 %

11.3 km/h aus 117

19.3 km/h aus S

5.2 C

11.9 C

12.7 C

12.7 C

0 W/m

0.00 mm

13:55

13.3 C

992.6 hpa

58 %

12.9 km/h aus 115

24.1 km/h aus S

5.2 C

11.2 C

12.0 C

12.5 C

0 W/m

0.00 mm

14:00

13.1 C

992.8 hpa

60 %

12.9 km/h aus 116

20.9 km/h aus S

5.5 C

11.0 C

11.7 C

12.3 C

0 W/m

0.00 mm

14:05

13.1 C

992.8 hpa

62 %

9.7 km/h aus 116

16.1 km/h aus S

5.9 C

11.7 C

12.3 C

12.4 C

0 W/m

0.00 mm

14:10

13.2 C

992.8 hpa

61 %

4.8 km/h aus 116

14.5 km/h aus SSW

5.9 C

12.6 C

13.2 C

12.6 C

0 W/m

0.00 mm

14:15

13.6 C

992.7 hpa

59 %

9.7 km/h aus 117

17.7 km/h aus S

5.7 C

12.2 C

13.0 C

12.8 C

0 W/m

0.00 mm

14:20

14.0 C

992.7 hpa

55 %

9.7 km/h aus 117

17.7 km/h aus WSW

5.1 C

12.6 C

13.4 C

13.1 C

0 W/m

0.00 mm

14:25

15.5 C

992.7 hpa

55 %

14.5 km/h aus 117

25.7 km/h aus S

6.5 C

13.3 C

14.2 C

14.6 C

0 W/m

0.00 mm

14:30

15.7 C

992.7 hpa

49 %

12.9 km/h aus 116

24.1 km/h aus SSW

5.0 C

13.7 C

14.8 C

14.5 C

0 W/m

0.00 mm

14:35

15.2 C

992.7 hpa

47 %

12.9 km/h aus 117

25.7 km/h aus S

3.9 C

13.1 C

14.3 C

13.9 C

0 W/m

0.00 mm

14:40

15.0 C

992.7 hpa

50 %

12.9 km/h aus 117

24.1 km/h aus SSW

4.7 C

12.9 C

14.1 C

13.9 C

0 W/m

0.00 mm

14:45

15.6 C

992.6 hpa

52 %

14.5 km/h aus 115

24.1 km/h aus S

5.8 C

13.3 C

14.3 C

14.6 C

0 W/m

0.00 mm

14:50

15.4 C

992.6 hpa

49 %

17.7 km/h aus 117

27.4 km/h aus SSW

4.7 C

12.2 C

13.3 C

14.2 C

0 W/m

0.00 mm

14:55

15.3 C

992.6 hpa

49 %

16.1 km/h aus 117

24.1 km/h aus S

4.6 C

12.4 C

13.6 C

14.1 C

0 W/m

0.00 mm

15:00

15.8 C

992.6 hpa

53 %

14.5 km/h aus 116

27.4 km/h aus SSW

6.3 C

13.6 C

14.6 C

14.8 C

0 W/m

0.00 mm

15:05

15.6 C

992.6 hpa

49 %

12.9 km/h aus 116

22.5 km/h aus S

4.9 C

13.6 C

14.8 C

14.4 C

0 W/m

0.00 mm

15:10

14.7 C

992.6 hpa

51 %

12.9 km/h aus 113

27.4 km/h aus SSW

4.6 C

12.6 C

13.7 C

13.6 C

0 W/m

0.00 mm

15:15

14.5 C

992.6 hpa

52 %

12.9 km/h aus 110

22.5 km/h aus SSW

4.8 C

12.4 C

13.4 C

13.5 C

0 W/m

0.00 mm

15:20

15.0 C

992.6 hpa

51 %

9.7 km/h aus 107

22.5 km/h aus SW

4.9 C

13.6 C

14.7 C

13.9 C

0 W/m

0.00 mm

15:25

15.1 C

992.6 hpa

49 %

14.5 km/h aus 108

24.1 km/h aus SSW

4.4 C

12.5 C

13.7 C

13.9 C

0 W/m

0.00 mm

15:30

15.2 C

992.6 hpa

47 %

14.5 km/h aus 108

27.4 km/h aus WSW

4.0 C

12.7 C

13.9 C

14.0 C

0 W/m

0.00 mm

15:35

14.7 C

992.6 hpa

50 %

12.9 km/h aus 113

24.1 km/h aus SW

4.4 C

12.6 C

13.7 C

13.6 C

0 W/m

0.00 mm

15:40

14.7 C

992.6 hpa

50 %

12.9 km/h aus 114

25.7 km/h aus S

4.4 C

12.6 C

13.7 C

13.6 C

0 W/m

0.00 mm

15:45

14.4 C

992.6 hpa

49 %

12.9 km/h aus 107

22.5 km/h aus WSW

3.8 C

12.2 C

13.3 C

13.3 C

0 W/m

0.00 mm

15:50

14.2 C

992.6 hpa

50 %

11.3 km/h aus 105

24.1 km/h aus SSW

3.9 C

12.4 C

13.5 C

13.1 C

0 W/m

0.00 mm

15:55

14.1 C

992.6 hpa

51 %

16.1 km/h aus 109

22.5 km/h aus SSW

4.1 C

11.1 C

12.1 C

13.0 C

0 W/m

0.00 mm

16:00

13.9 C

992.6 hpa

52 %

14.5 km/h aus 109

25.7 km/h aus S

4.2 C

11.3 C

12.3 C

12.9 C

0 W/m

0.00 mm

16:05

14.0 C

992.6 hpa

51 %

11.3 km/h aus 112

20.9 km/h aus SSW

4.0 C

12.2 C

13.2 C

12.9 C

0 W/m

0.00 mm

16:10

14.3 C

992.6 hpa

51 %

8.0 km/h aus 105

16.1 km/h aus SSW

4.3 C

12.9 C

14.0 C

13.2 C

0 W/m

0.00 mm

16:15

14.7 C

992.6 hpa

52 %

11.3 km/h aus 107

17.7 km/h aus SSW

5.0 C

13.1 C

14.1 C

13.7 C

0 W/m

0.00 mm

16:20

15.3 C

992.6 hpa

51 %

6.4 km/h aus 111

16.1 km/h aus SSE

5.2 C

14.3 C

15.3 C

14.3 C

0 W/m

0.00 mm

16:25

15.7 C

992.6 hpa

50 %

8.0 km/h aus 114

17.7 km/h aus S

5.3 C

14.6 C

15.7 C

14.6 C

0 W/m

0.00 mm

16:30

15.7 C

992.6 hpa

48 %

9.7 km/h aus 112

17.7 km/h aus SW

4.7 C

14.3 C

15.4 C

14.5 C

0 W/m

0.00 mm

16:35

15.3 C

992.6 hpa

47 %

8.0 km/h aus 108

17.7 km/h aus S

4.1 C

14.1 C

15.3 C

14.1 C

0 W/m

0.00 mm

16:40

15.4 C

992.6 hpa

47 %

9.7 km/h aus 112

20.9 km/h aus SW

4.1 C

13.9 C

15.1 C

14.2 C

0 W/m

0.00 mm

16:45

15.6 C

992.6 hpa

46 %

8.0 km/h aus 110

17.7 km/h aus S

4.0 C

14.3 C

15.6 C

14.3 C

0 W/m

0.00 mm

16:50

15.6 C

992.6 hpa

43 %

11.3 km/h aus 113

25.7 km/h aus SW

3.1 C

13.8 C

15.2 C

14.2 C

0 W/m

0.00 mm

16:55

15.7 C

992.6 hpa

45 %

9.7 km/h aus 114

19.3 km/h aus SSW

3.8 C

14.2 C

15.4 C

14.4 C

0 W/m

0.00 mm

17:00

15.4 C

992.6 hpa

44 %

11.3 km/h aus 115

24.1 km/h aus SSW

3.2 C

13.7 C

15.0 C

14.1 C

0 W/m

0.00 mm

17:05

15.6 C

992.6 hpa

48 %

11.3 km/h aus 113

25.7 km/h aus SSE

4.6 C

14.0 C

15.2 C

14.4 C

0 W/m

0.00 mm

17:10

15.4 C

992.6 hpa

45 %

14.5 km/h aus 112

27.4 km/h aus S

3.5 C

12.8 C

14.1 C

14.1 C

0 W/m

0.00 mm

17:15

15.3 C

992.6 hpa

43 %

9.7 km/h aus 112

17.7 km/h aus WSW

2.8 C

13.7 C

15.1 C

13.9 C

0 W/m

0.00 mm

17:20

15.3 C

992.6 hpa

43 %

9.7 km/h aus 108

17.7 km/h aus WSW

2.8 C

13.6 C

15.0 C

13.9 C

0 W/m

0.00 mm

17:25

14.8 C

992.6 hpa

44 %

11.3 km/h aus 113

20.9 km/h aus SSW

2.7 C

12.9 C

14.2 C

13.5 C

0 W/m

0.00 mm

17:30

14.7 C

992.7 hpa

45 %

9.7 km/h aus 112

17.7 km/h aus SSW

2.8 C

13.0 C

14.3 C

13.4 C

0 W/m

0.00 mm

17:35

14.6 C

992.7 hpa

45 %

11.3 km/h aus 109

20.9 km/h aus SW

2.8 C

12.7 C

14.0 C

13.3 C

0 W/m

0.00 mm

17:40

14.7 C

992.7 hpa

44 %

11.3 km/h aus 110

17.7 km/h aus SSW

2.5 C

12.7 C

14.1 C

13.3 C

0 W/m

0.00 mm

17:45

14.6 C

992.9 hpa

44 %

11.3 km/h aus 110

19.3 km/h aus SW

2.5 C

12.7 C

14.0 C

13.3 C

0 W/m

0.00 mm

17:50

14.6 C

992.9 hpa

46 %

9.7 km/h aus 109

17.7 km/h aus WSW

3.1 C

13.0 C

14.2 C

13.4 C

0 W/m

0.00 mm

17:55

14.6 C

992.9 hpa

46 %

8.0 km/h aus 108

19.3 km/h aus SSW

3.1 C

13.2 C

14.4 C

13.4 C

0 W/m

0.00 mm

18:00

14.6 C

993.0 hpa

46 %

8.0 km/h aus 112

16.1 km/h aus SW

3.1 C

13.1 C

14.3 C

13.3 C

0 W/m

0.00 mm

18:05

14.6 C

993.0 hpa

47 %

8.0 km/h aus 111

17.7 km/h aus S

3.4 C

13.1 C

14.3 C

13.3 C

0 W/m

0.00 mm

18:10

14.4 C

993.0 hpa

46 %

6.4 km/h aus 107

11.3 km/h aus SW

3.0 C

13.2 C

14.4 C

13.2 C

0 W/m

0.00 mm

18:15

14.3 C

993.1 hpa

47 %

8.0 km/h aus 113

17.7 km/h aus SSW

3.1 C

12.8 C

14.0 C

13.1 C

0 W/m

0.00 mm

18:20

14.3 C

993.1 hpa

47 %

9.7 km/h aus 108

17.7 km/h aus SW

3.1 C

12.6 C

13.8 C

13.1 C

0 W/m

0.00 mm

18:25

14.2 C

993.1 hpa

48 %

12.9 km/h aus 111

25.7 km/h aus SSW

3.4 C

11.9 C

13.1 C

13.1 C

0 W/m

0.00 mm

18:30

14.1 C

993.1 hpa

49 %

12.9 km/h aus 112

24.1 km/h aus SSW

3.5 C

11.9 C

13.0 C

13.0 C

0 W/m

0.00 mm

18:35

14.0 C

993.1 hpa

50 %

11.3 km/h aus 111

22.5 km/h aus WSW

3.7 C

12.2 C

13.2 C

12.9 C

0 W/m

0.00 mm

18:40

13.8 C

993.1 hpa

53 %

17.7 km/h aus 111

30.6 km/h aus S

4.4 C

10.6 C

11.5 C

12.8 C

0 W/m

0.00 mm

18:45

13.4 C

993.3 hpa

52 %

19.3 km/h aus 107

32.2 km/h aus S

3.8 C

9.8 C

10.8 C

12.4 C

0 W/m

0.00 mm

18:50

13.3 C

993.3 hpa

52 %

14.5 km/h aus 104

24.1 km/h aus SSW

3.6 C

10.6 C

11.6 C

12.3 C

0 W/m

0.00 mm

18:55

13.2 C

993.3 hpa

52 %

11.3 km/h aus 109

20.9 km/h aus SSW

3.5 C

11.3 C

12.2 C

12.2 C

0 W/m

0.00 mm

19:00

13.0 C

993.1 hpa

53 %

9.7 km/h aus 111

17.7 km/h aus S

3.6 C

11.3 C

12.3 C

12.1 C

0 W/m

0.00 mm

19:05

13.1 C

993.1 hpa

51 %

9.7 km/h aus 105

14.5 km/h aus SSW

3.1 C

11.3 C

12.3 C

12.1 C

0 W/m

0.00 mm

19:10

13.0 C

993.1 hpa

54 %

8.0 km/h aus 98

14.5 km/h aus S

3.9 C

11.7 C

12.6 C

12.1 C

0 W/m

0.00 mm

19:15

12.8 C

993.1 hpa

56 %

9.7 km/h aus 106

14.5 km/h aus S

4.2 C

11.2 C

12.0 C

11.9 C

0 W/m

0.00 mm

19:20

12.4 C

993.1 hpa

56 %

8.0 km/h aus 103

11.3 km/h aus S

3.9 C

11.1 C

11.9 C

11.7 C

0 W/m

0.00 mm

19:25

12.4 C

993.1 hpa

54 %

8.0 km/h aus 105

12.9 km/h aus S

3.4 C

11.1 C

11.9 C

11.6 C

0 W/m

0.00 mm

19:30

12.3 C

993.4 hpa

55 %

8.0 km/h aus 106

12.9 km/h aus S

3.5 C

10.9 C

11.7 C

11.6 C

0 W/m

0.00 mm

19:35

12.1 C

993.4 hpa

57 %

8.0 km/h aus 102

12.9 km/h aus S

3.8 C

10.8 C

11.5 C

11.4 C

0 W/m

0.00 mm

19:40

11.9 C

993.4 hpa

58 %

8.0 km/h aus 109

14.5 km/h aus SSW

3.9 C

10.6 C

11.3 C

11.2 C

0 W/m

0.00 mm

19:45

11.7 C

993.6 hpa

59 %

9.7 km/h aus 110

16.1 km/h aus SSE

4.0 C

10.1 C

10.7 C

11.1 C

0 W/m

0.00 mm

19:50

11.5 C

993.6 hpa

60 %

8.0 km/h aus 108

11.3 km/h aus S

4.0 C

10.2 C

10.8 C

10.9 C

0 W/m

0.00 mm

19:55

11.2 C

993.6 hpa

62 %

6.4 km/h aus 109

9.7 km/h aus S

4.2 C

10.2 C

10.7 C

10.7 C

0 W/m

0.00 mm

20:00

10.7 C

993.7 hpa

65 %

6.4 km/h aus 107

8.0 km/h aus S

4.4 C

9.8 C

10.2 C

10.3 C

0 W/m

0.00 mm

20:05

10.3 C

993.7 hpa

67 %

3.2 km/h aus 106

8.0 km/h aus SE

4.4 C

9.9 C

10.3 C

9.9 C

0 W/m

0.00 mm

20:10

10.0 C

993.7 hpa

69 %

3.2 km/h aus 107

6.4 km/h aus SE

4.6 C

9.8 C

10.0 C

9.8 C

0 W/m

0.00 mm

20:15

9.7 C

994.0 hpa

71 %

4.8 km/h aus 110

6.4 km/h aus SE

4.7 C

9.2 C

9.4 C

9.4 C

0 W/m

0.00 mm

20:20

9.4 C

994.0 hpa

72 %

3.2 km/h aus 109

6.4 km/h aus SE

4.6 C

9.2 C

9.4 C

9.2 C

0 W/m

0.00 mm

20:25

9.2 C

994.0 hpa

73 %

3.2 km/h aus 107

4.8 km/h aus SE

4.6 C

9.0 C

9.2 C

9.0 C

0 W/m

0.00 mm

20:30

9.1 C

994.1 hpa

73 %

3.2 km/h aus 109

6.4 km/h aus SE

4.5 C

8.9 C

9.1 C

8.9 C

0 W/m

0.00 mm

20:35

8.9 C

994.1 hpa

75 %

3.2 km/h aus 112

6.4 km/h aus SE

4.7 C

8.7 C

8.9 C

8.7 C

0 W/m

0.00 mm

20:40

8.8 C

994.1 hpa

76 %

1.6 km/h aus 116

3.2 km/h aus SE

4.8 C

8.6 C

8.8 C

8.6 C

0 W/m

0.00 mm

20:45

8.9 C

994.3 hpa

75 %

1.6 km/h aus 112

3.2 km/h aus SE

4.7 C

8.7 C

8.9 C

8.7 C

0 W/m

0.00 mm

20:50

9.0 C

994.3 hpa

75 %

0.0 km/h aus 113

3.2 km/h aus SE

4.8 C

8.8 C

9.0 C

8.8 C

0 W/m

0.00 mm

20:55

8.7 C

994.3 hpa

75 %

1.6 km/h aus 113

3.2 km/h aus SE

4.5 C

8.5 C

8.7 C

8.5 C

0 W/m

0.00 mm

21:00

8.2 C

994.6 hpa

77 %

3.2 km/h aus 104

6.4 km/h aus SE

4.4 C

8.1 C

8.2 C

8.1 C

0 W/m

0.00 mm

21:05

7.8 C

994.6 hpa

78 %

4.8 km/h aus 106

8.0 km/h aus SE

4.2 C

7.2 C

7.3 C

7.6 C

0 W/m

0.00 mm

21:10

7.6 C

994.6 hpa

79 %

4.8 km/h aus 104

9.7 km/h aus SE

4.1 C

6.9 C

7.1 C

7.4 C

0 W/m

0.00 mm

21:15

7.6 C

994.7 hpa

80 %

4.8 km/h aus 110

9.7 km/h aus SE

4.3 C

6.9 C

7.1 C

7.4 C

0 W/m

0.00 mm

21:20

7.6 C

994.7 hpa

80 %

4.8 km/h aus 117

8.0 km/h aus SE

4.4 C

7.0 C

7.1 C

7.5 C

0 W/m

0.00 mm

21:25

7.8 C

994.7 hpa

80 %

3.2 km/h aus 116

6.4 km/h aus SE

4.5 C

7.7 C

7.8 C

7.7 C

0 W/m

0.00 mm

21:30

8.3 C

995.1 hpa

79 %

3.2 km/h aus 117

8.0 km/h aus SE

4.9 C

8.2 C

8.3 C

8.2 C

0 W/m

0.00 mm

21:35

8.9 C

995.1 hpa

77 %

4.8 km/h aus 117

8.0 km/h aus WNW

5.1 C

8.5 C

8.6 C

8.8 C

0 W/m

0.00 mm

21:40

9.2 C

995.1 hpa

75 %

1.6 km/h aus 116

4.8 km/h aus WNW

5.0 C

9.1 C

9.2 C

9.1 C

0 W/m

0.00 mm

21:45

9.2 C

995.0 hpa

74 %

3.2 km/h aus 116

8.0 km/h aus WNW

4.8 C

9.1 C

9.2 C

9.1 C

0 W/m

0.00 mm

21:50

9.2 C

995.0 hpa

75 %

1.6 km/h aus 116

8.0 km/h aus SSE

5.0 C

9.0 C

9.2 C

9.0 C

0 W/m

0.00 mm

21:55

9.3 C

995.0 hpa

75 %

0.0 km/h aus 117

0.0 km/h aus ---

5.1 C

9.2 C

9.3 C

9.2 C

0 W/m

0.00 mm

22:00

9.6 C

994.9 hpa

74 %

0.0 km/h aus 117

0.0 km/h aus ---

5.1 C

9.4 C

9.6 C

9.4 C

0 W/m

0.00 mm

22:05

9.6 C

994.9 hpa

75 %

0.0 km/h aus 116

1.6 km/h aus SSE

5.4 C

9.4 C

9.6 C

9.4 C

0 W/m

0.00 mm

22:10

9.7 C

994.9 hpa

76 %

0.0 km/h aus 116

3.2 km/h aus SSE

5.7 C

9.6 C

9.7 C

9.6 C

0 W/m

0.00 mm

22:15

9.7 C

995.1 hpa

76 %

0.0 km/h aus 117

1.6 km/h aus SSE

5.6 C

9.6 C

9.7 C

9.6 C

0 W/m

0.00 mm

22:20

9.6 C

995.1 hpa

78 %

4.8 km/h aus 117

9.7 km/h aus SSE

5.9 C

9.2 C

9.3 C

9.4 C

0 W/m

0.00 mm

22:25

9.3 C

995.1 hpa

81 %

6.4 km/h aus 117

16.1 km/h aus SE

6.2 C

8.5 C

8.6 C

9.2 C

0 W/m

0.25 mm

22:30

9.1 C

995.1 hpa

82 %

6.4 km/h aus 116

11.3 km/h aus ESE

6.2 C

8.3 C

8.3 C

9.1 C

0 W/m

0.00 mm

22:35

9.1 C

995.1 hpa

83 %

9.7 km/h aus 116

17.7 km/h aus SSE

6.3 C

7.6 C

7.6 C

9.1 C

0 W/m

0.00 mm

22:40

9.1 C

995.1 hpa

83 %

8.0 km/h aus 116

16.1 km/h aus SSE

6.4 C

7.9 C

7.9 C

9.1 C

0 W/m

0.00 mm

22:45

9.3 C

995.3 hpa

82 %

3.2 km/h aus 116

8.0 km/h aus SSW

6.4 C

9.3 C

9.3 C

9.3 C

0 W/m

0.00 mm

22:50

9.2 C

995.3 hpa

83 %

1.6 km/h aus 116

3.2 km/h aus SSW

6.4 C

9.2 C

9.2 C

9.2 C

0 W/m

0.00 mm

22:55

9.1 C

995.3 hpa

84 %

1.6 km/h aus 117

3.2 km/h aus SSW

6.5 C

9.1 C

9.1 C

9.1 C

0 W/m

0.00 mm

23:00

8.9 C

995.5 hpa

84 %

6.4 km/h aus 117

12.9 km/h aus SSW

6.4 C

8.2 C

8.2 C

8.9 C

0 W/m

0.00 mm

23:05

8.8 C

995.5 hpa

85 %

6.4 km/h aus 117

9.7 km/h aus S

6.4 C

8.1 C

8.1 C

8.8 C

0 W/m

0.00 mm

23:10

8.8 C

995.5 hpa

85 %

4.8 km/h aus 117

8.0 km/h aus S

6.4 C

8.4 C

8.4 C

8.8 C

0 W/m

0.00 mm

23:15

8.7 C

995.6 hpa

84 %

3.2 km/h aus 116

6.4 km/h aus S

6.2 C

8.7 C

8.7 C

8.7 C

0 W/m

0.00 mm

23:20

8.8 C

995.6 hpa

84 %

1.6 km/h aus 117

8.0 km/h aus SW

6.3 C

8.8 C

8.8 C

8.8 C

0 W/m

0.00 mm

23:25

9.1 C

995.6 hpa

83 %

6.4 km/h aus 117

11.3 km/h aus WSW

6.3 C

8.3 C

8.3 C

9.1 C

0 W/m

0.00 mm

23:30

9.3 C

995.7 hpa

81 %

6.4 km/h aus 117

17.7 km/h aus WSW

6.2 C

8.6 C

8.6 C

9.3 C

0 W/m

0.25 mm

23:35

9.5 C

995.7 hpa

79 %

8.0 km/h aus 116

16.1 km/h aus WSW

6.0 C

8.3 C

8.4 C

9.4 C

0 W/m

0.00 mm

23:40

9.6 C

995.7 hpa

77 %

9.7 km/h aus 117

22.5 km/h aus SW

5.7 C

8.1 C

8.2 C

9.4 C

0 W/m

0.00 mm

23:45

9.4 C

995.7 hpa

77 %

6.4 km/h aus 117

12.9 km/h aus WSW

5.6 C

8.6 C

8.7 C

9.3 C

0 W/m

0.00 mm

23:50

9.3 C

995.7 hpa

77 %

3.2 km/h aus 118

8.0 km/h aus W

5.5 C

9.2 C

9.3 C

9.2 C

0 W/m

0.00 mm

23:55

9.3 C

995.7 hpa

78 %

1.6 km/h aus 116

8.0 km/h aus W

5.6 C

9.2 C

9.3 C

9.2 C

0 W/m

0.00 mm